Location: Gand�
(15.0971°N, 12.6564°W)
Time: 02:38:14
(UTC+00:00)

ALOS - Pass Details

Date: 07 August 2020
Orbit: 683 x 685 km, 97.9° (Epoch: 23 September)

Event Time Altitude Azimuth Distance (km) Brightness Sun altitude
Rises 04:48:43 0° 26° (NNE) 3,040 6.4 -24.6°
Reaches altitude 10° 04:51:09 10° 36° (NE) 2,124 5.6 -24.1°
Maximum altitude 04:55:19 32° 100° (E) 1,153 3.9 -23.2°
Drops below altitude 10° 04:59:28 10° 163° (SSE) 2,120 4.7 -22.3°
Enters shadow 05:00:37 - 169° (S) 2,544 5.1 -22.1°
